TimeCST,TemperatureF,Dew PointF,Humidity,Sea Level PressureIn,VisibilityMPH,Wind Direction,Wind SpeedMPH,Gust SpeedMPH,PrecipitationIn,Events,Conditions,WindDirDegrees,DateUTC
12:53 AM,37.9,32.0,79,30.32,10.0,North,8.1,-,N/A,,Clear,350,2012-11-12 06:53:00
1:53 AM,35.1,30.0,82,30.35,10.0,NNW,4.6,-,N/A,,Clear,330,2012-11-12 07:53:00
2:53 AM,34.0,30.0,85,30.36,10.0,NNW,6.9,-,N/A,,Clear,330,2012-11-12 08:53:00
3:53 AM,33.1,28.0,82,30.38,10.0,NNW,6.9,-,N/A,,Clear,340,2012-11-12 09:53:00
4:53 AM,32.0,27.0,82,30.40,10.0,North,5.8,-,N/A,,Clear,350,2012-11-12 10:53:00
5:53 AM,33.1,26.1,75,30.43,10.0,North,5.8,-,N/A,,Clear,10,2012-11-12 11:53:00
6:53 AM,30.9,26.1,82,30.47,10.0,NNW,5.8,-,N/A,,Clear,330,2012-11-12 12:53:00
7:53 AM,35.1,26.1,70,30.49,10.0,North,6.9,-,N/A,,Clear,350,2012-11-12 13:53:00
8:53 AM,39.0,27.0,62,30.50,10.0,North,9.2,-,N/A,,Clear,10,2012-11-12 14:53:00
9:53 AM,44.1,25.0,47,30.51,10.0,NE,8.1,-,N/A,,Clear,50,2012-11-12 15:53:00
10:53 AM,46.9,21.9,37,30.52,10.0,NE,4.6,-,N/A,,Clear,50,2012-11-12 16:53:00
11:53 AM,50.0,21.0,32,30.51,10.0,Variable,5.8,-,N/A,,Clear,0,2012-11-12 17:53:00
12:53 PM,52.0,19.0,27,30.49,10.0,North,8.1,-,N/A,,Clear,350,2012-11-12 18:53:00
1:53 PM,54.0,19.9,26,30.47,10.0,North,5.8,-,N/A,,Clear,10,2012-11-12 19:53:00
2:53 PM,54.0,18.0,24,30.46,10.0,ESE,3.5,-,N/A,,Clear,110,2012-11-12 20:53:00
3:53 PM,55.0,16.0,22,30.46,10.0,NNE,4.6,-,N/A,,Clear,30,2012-11-12 21:53:00
4:53 PM,53.1,17.1,24,30.47,10.0,NE,3.5,-,N/A,,Clear,50,2012-11-12 22:53:00
5:53 PM,48.0,19.0,32,30.47,10.0,North,4.6,-,N/A,,Clear,360,2012-11-12 23:53:00
6:53 PM,44.1,21.0,40,30.48,10.0,NNE,3.5,-,N/A,,Clear,30,2012-11-13 00:53:00
7:53 PM,42.1,23.0,47,30.50,10.0,Calm,Calm,-,N/A,,Clear,0,2012-11-13 01:53:00
8:53 PM,37.9,24.1,57,30.51,10.0,Calm,Calm,-,N/A,,Clear,0,2012-11-13 02:53:00
9:53 PM,34.0,25.0,70,30.52,10.0,NNW,4.6,-,N/A,,Clear,330,2012-11-13 03:53:00
10:53 PM,33.1,24.1,70,30.51,10.0,NW,4.6,-,N/A,,Clear,310,2012-11-13 04:53:00
11:53 PM,30.9,24.1,76,30.51,10.0,Calm,Calm,-,N/A,,Clear,0,2012-11-13 05:53:00